2019-036Z (44375 NORAD) Tracking and Keplerian Element Data

This shows tracking and keplerian element data for the satellite.

Feedback or suggestion? Click here.




ElementValue
Catalog44375
Name2019-036Z
Epoch Orbit312
Epoch Day203.85265758
Epoch Year2019
RAAN21.5723
Inclination28.521
Eccentricity0.0385798
Argument of Perigee37.3861
Mean Anonmoly325.2927
Mean Motion14.97820731
Decay Rate0.00015921
L11 44375U 19036Z 19203.85265758 .00015921 00000-0 24979-3 0 9995
L22 44375 28.5210 21.5723 0385798 37.3861 325.2927 14.97820731 3129

Live tracking and technical data element details for 2019-036Z (NORAD 44375). 2019-036Z can be tracked NOW for your location showing map with azimuth and elevation plus other details from your city location.

Track the satellite on the map from your city or location and see movement details for azimuth, elevation, latitude, longitude, range, height, and movement on the map or in text.







IsCatalogInMostPopularTable: catalog: 44375, numindb: 21
Update: records affected: 1



GetName: 44375 2019-036Z

Hit Count: updated at: Thu, 12 Dec 2019 01:07:48 GMT